Location: ????????
(55.1294°N, 39.0937°E)
Time: 13:52:16
(UTC+00:00)

Daily predictions for brighter satellites

Satellite Brightness Start Highest point End
(mag) Time Altitude Azimuth Time Altitude Azimuth Time Altitude Azimuth
Cosmos 2297 3.8 13:31:18 10° SSW 13:37:00 84° ESE 13:42:41 10° NE
Cosmos 1892 Rocket 3.6 13:35:26 10° N 13:39:54 76° ENE 13:44:21 10° SSE
Cosmos 1464 Rocket 4.0 13:33:53 10° S 13:40:03 84° E 13:46:13 10° NNE
SMAP 3.7 13:36:04 10° SE 13:40:17 35° ENE 13:44:30 10° N
Thor Agena Rocket 3.8 13:36:13 10° SE 13:41:10 47° ENE 13:46:06 10° N
Cosmos 2297 Rocket 2.5 13:38:36 10° NNW 13:44:03 44° NE 13:49:28 10° ESE
Landsat 7 4.5 13:42:25 10° ESE 13:46:30 31° ENE 13:50:36 10° N
Cosmos 2151 4.1 13:44:12 10° NNE 13:47:23 21° ENE 13:50:34 10° ESE
Cosmos 1741 Rocket 4.1 13:43:38 10° SSW 13:48:57 89° WNW 13:54:18 10° NNE
Aureole 3 Rocket 4.3 13:45:34 10° SSW 13:49:56 53° WNW 13:56:04 10° N
Cosmos 1092 Rocket 4.0 13:45:03 10° N 13:51:16 74° ENE 13:57:24 10° SSE
CZ-2D R/B 4.0 13:49:23 10° ESE 13:51:48 21° ENE 13:54:14 10° NNE
BlueWalker 3 2.9 13:51:12 10° W 13:54:41 45° SSW 13:58:10 10° SE
Meteor 2-1 Rocket 4.4 13:50:31 10° S 13:56:28 84° ESE 14:02:20 10° NNE
Cosmos 2219 4.5 13:52:21 10° NNW 13:56:45 22° NNE 14:01:11 10° ENE
Cosmos 1743 3.4 13:56:09 10° NNE 13:58:49 23° ENE 14:01:28 10° ESE
Lacrosse 4 Rocket 1.7 13:55:37 10° SSW 13:59:32 47° ESE 14:03:13 11° NE
ATLAS CENTAUR R/B 0.7 13:57:21 10° NW 14:00:38 61° NE 14:03:49 10° ESE
CZ-4C R/B 2.8 13:55:54 10° NW 14:02:06 64° NNE 14:10:04 10° ESE
Cosmos 1484 Rocket 2.5 14:00:08 10° SSE 14:03:40 88° ENE 14:07:12 10° NNW
Iridium 45 4.1 14:02:28 10° S 14:05:37 78° E 14:08:51 10° N
Cosmos 724 4.4 14:01:13 10° NW 14:07:20 67° NE 14:13:17 10° ESE
Cosmos 2034 Rocket 4.1 14:01:28 10° S 14:07:48 89° E 14:14:14 10° NNE
JB-3 4.1 14:04:08 10° NNE 14:07:51 86° ESE 14:11:31 10° SSW
Meteor 1-28 Rocket 3.4 14:06:25 10° NNE 14:09:38 40° E 14:12:49 10° S
NOSS 3-3 (A) 4.5 14:05:19 10° NW 14:12:18 84° NE 14:20:44 10° SE
Iridium 51 3.9 14:09:28 10° SSE 14:12:29 48° E 14:15:37 10° NNE
MOS 1 Rocket 3.9 14:10:19 10° SE 14:14:52 40° ENE 14:19:41 10° N
Cosmos 1602 Rocket 4.1 14:10:48 10° N 14:14:56 37° ENE 14:18:59 10° SE
Cosmos 1570 Rocket 4.0 14:09:43 10° NNW 14:15:06 86° ENE 14:20:27 10° SSE
Cosmos 1867 3.7 14:09:59 10° NW 14:15:22 54° NNE 14:20:42 10° ESE
IGS 5A 3.3 14:12:40 10° SSE 14:16:38 89° WSW 14:20:38 10° NNW
Cosmos 1455 Rocket 3.1 14:12:59 10° SSW 14:17:18 86° W 14:21:43 10° NNE
Lacrosse 5 rocket 1.9 14:15:12 10° SW 14:18:43 39° SE 14:21:16 16° E
Cosmos 1844 Rocket 4.3 14:15:06 10° NNW 14:18:51 18° NNE 14:21:38 13° NE
Cosmos 2084 3.5 14:15:05 10° SW 14:19:14 64° SE 14:22:25 16° ENE
CENTAUR R/B 2.6 14:14:26 10° SW 14:20:12 70° SE 14:26:39 14° NE
IRS-P3 4.3 14:15:35 10° SE 14:20:38 47° ENE 14:25:44 10° N
Cosmos 2084 Rocket 3.4 14:17:11 10° NW 14:21:22 60° NNE 14:25:32 10° ESE
SAR-Lupe-4 3.7 14:18:11 10° SE 14:21:38 48° ENE 14:25:05 10° N
Cosmos 2266 Rocket 4.2 14:19:36 10° N 14:25:37 48° ENE 14:31:30 10° SE
Cosmos 2263 Rocket 2.9 14:20:48 10° NNW 14:25:51 32° NE 14:30:18 13° E
Cosmos 292 Rocket 3.9 14:21:38 10° SSW 14:26:27 78° WNW 14:31:16 10° NNE
Cosmos 1315 Rocket 2.6 14:22:57 10° S 14:26:46 77° ESE 14:30:38 10° NNE
Resurs 01 Rocket 3.5 14:28:01 13° NE 14:28:01 13° NE 14:29:17 10° NNE
SL-16 R/B 2.5 14:21:05 10° NNE 14:27:22 79° ESE 14:33:35 10° SSW
Cosmos 1607 3.9 14:22:17 10° NW 14:28:32 82° NE 14:34:50 10° SE
SAR-Lupe-1 4.2 14:25:18 10° SE 14:28:49 51° ENE 14:32:20 10° N
SJ 16-02 3.7 14:26:20 10° WNW 14:28:55 15° NW 14:31:32 10° N
CZ-2D R/B 4.3 14:25:40 10° ESE 14:29:15 28° ENE 14:32:47 10° N
NOSS 7 (H) 4.3 14:26:25 10° NW 14:29:18 45° NNE 14:31:04 20° E
ERS-1 4.5 14:24:36 10° SE 14:29:32 59° ENE 14:34:26 10° N
NOSS 2-2 (E) 4.5 14:28:04 10° SSE 14:30:17 17° SE 14:31:01 16° ESE
YAOGAN 1 3.5 14:29:11 10° ESE 14:32:43 26° ENE 14:36:16 10° N
Intercosmos 24 3.8 14:29:17 10° NNW 14:33:43 86° W 14:37:18 10° S
Cosmos 2227 Rocket 2.4 14:29:32 10° NNW 14:35:01 47° NE 14:40:28 10° ESE
Cosmos 1782 2.9 14:31:57 10° SSE 14:35:22 42° E 14:37:56 16° NNE
USA 215 3.3 14:29:44 14° E 14:35:32 77° N 14:42:06 10° W
CORIOLIS 4.2 14:32:07 10° SSE 14:37:28 84° WSW 14:42:51 10° NNW
USA 281 4.4 14:38:01 17° NE 14:40:46 22° NNE 14:45:34 10° NNW
Cosmos 405 Rocket 2.8 14:37:42 10° NNW 14:40:57 61° W 14:44:09 10° S
Cosmos 1356 Rocket 3.4 14:36:56 10° SSW 14:40:59 82° WNW 14:45:07 10° NNE
Cosmos 773 Rocket 4.1 14:36:15 10° NNW 14:41:28 83° WSW 14:46:42 10° SSE
Cosmos 2369 Rocket 3.1 14:37:04 10° WSW 14:42:27 44° NW 14:47:43 11° NNE
Cosmos 1733 1.8 14:43:17 10° NNW 14:45:14 63° WSW 14:47:07 10° S
SJ-12 3.6 14:43:08 10° SSE 14:46:55 81° ENE 14:50:44 10° NNW
SJ-6F 4.3 14:44:54 10° SSE 14:48:50 64° ENE 14:52:50 10° N
Cosmos 2208 Rocket 4.2 14:43:43 10° NNW 14:48:54 73° WSW 14:54:02 10° SSE
Cosmos 1825 Rocket 3.9 14:45:12 10° N 14:49:21 40° ENE 14:53:26 10° SE
ARIANE 5 R/B 2.5 14:44:29 10° SSE 14:49:33 87° WSW 14:54:44 10° NNW
Cosmos 1933 4.3 14:47:03 10° SE 14:49:46 24° E 14:49:46 24° E
Cosmos 1758 Rocket 3.7 14:46:14 10° NNW 14:50:35 77° W 14:54:52 10° S
Cosmos 2278 Rocket 4.1 14:47:08 10° WNW 14:51:01 18° NNW 14:54:37 11° NNE
Cosmos 1943 Rocket 4.1 14:47:42 10° WNW 14:51:21 17° NNW 14:54:44 11° NNE
GEOS 3 Rocket 3.7 14:48:18 20° NE 14:52:06 73° SE 14:57:28 10° SW
SPOT 1/Viking Rocket 3.6 14:47:09 10° SE 14:52:13 54° ENE 14:57:18 10° N
Cosmos 2228 3.2 14:48:10 10° SSW 14:52:24 74° WNW 14:56:41 10° N
Cosmos 2098 Rocket 3.0 14:53:00 10° S 14:56:59 65° E 15:01:44 10° NNE
Cosmos 1697 Rocket 3.7 14:53:26 10° SSE 14:57:48 24° ESE 14:58:27 23° E
Meteor 1-20 Rocket 4.0 14:53:35 10° NNW 14:59:06 79° ENE 15:04:34 10° SSE
BREEZE-M DEB (TANK) 3.6 14:57:12 10° WSW 15:00:06 42° S 15:05:50 15° ESE
AQUARIUS 4.2 15:02:20 10° SSE 15:06:45 79° WSW 15:11:12 10° NNW
NOSS 2-2 (C) 2.4 15:06:47 10° SW 15:09:53 83° SE 15:10:15 65° ENE
USA 290 3.1 15:10:33 10° NW 15:13:44 51° WSW 15:16:55 10° S
NOSS 3-2 (C) 3.8 15:09:10 10° S 15:13:49 35° ESE 15:15:10 31° E
NOSS 3-2 (A) 3.2 15:10:08 10° SW 15:15:16 70° SE 15:18:17 30° ENE
Cosmos 1655 Rocket 4.0 15:09:52 10° N 15:16:05 59° ENE 15:22:13 10° SSE
SMAP 4.4 15:13:09 10° S 15:17:35 42° W 15:22:01 10° NNW
Cosmos 2082 4.2 15:14:11 10° NNW 15:19:32 39° NE 15:20:46 35° ENE
Cosmos 1241 Rocket 4.4 15:13:27 10° SSW 15:19:46 69° SE 15:22:58 30° NE
Cosmos 1538 Rocket 4.1 15:17:53 10° NNW 15:23:02 52° NE 15:25:01 34° ESE
CZ-2D R/B 4.4 15:20:40 10° SSW 15:23:35 35° W 15:26:32 10° NNW
Cosmos 2151 3.5 15:20:29 10° NNW 15:24:34 58° W 15:28:38 10° S
Cosmos 1606 Rocket 3.6 15:22:52 10° S 15:27:10 55° E 15:27:44 50° ENE
Cosmos 2297 Rocket 3.1 15:22:44 10° NW 15:28:13 50° WSW 15:33:38 10° S
UNK 4.3 15:24:00 10° N 15:28:31 58° WNW 15:32:59 10° SSW
Meteor 1-25 Rocket 4.3 15:23:04 10° NNW 15:28:56 82° WSW 15:34:44 10° S
BREEZE-M DEB (TANK) 4.3 15:25:56 10° WSW 15:29:17 48° S 15:33:47 24° ESE
Cosmos 1076 Rocket 3.4 15:26:10 10° N 15:30:27 62° ENE 15:32:39 27° SSE
Okean 1-7 Rocket 3.8 15:26:59 10° NNW 15:31:24 69° W 15:35:44 10° S
Cosmos 1743 4.2 15:29:31 10° NNW 15:32:27 31° W 15:35:21 10° SSW
Cosmos 1656 3.6 15:28:34 10° SSW 15:34:12 90° NW 15:37:03 31° NNE
Resurs 1-3 3.4 15:30:02 10° SSE 15:34:20 79° ENE 15:38:39 10° NNW
ATLAS CENTAUR R/B 3.5 15:32:44 10° WNW 15:35:10 20° WSW 15:37:33 10° S
Cosmos 1544 Rocket 4.4 15:31:56 10° SSW 15:36:12 50° WNW 15:40:20 11° N
Cosmos 1503 Rocket 3.9 15:31:26 10° SSW 15:36:37 63° ESE 15:37:54 47° NE
Meteor 2-10 4.1 15:32:08 10° N 15:37:20 56° ENE 15:39:46 31° SE
Lacrosse 4 Rocket 2.6 15:33:46 10° WSW 15:37:31 35° NW 15:38:43 28° N
OceanSat 1 rocket 4.4 15:34:09 10° SSE 15:38:54 74° ENE 15:43:37 10° NNW
Cosmos 2219 3.3 15:36:28 10° NNW 15:42:08 57° NE 15:43:14 49° E
Cosmos 1461 4.1 15:39:08 10° SSW 15:41:17 26° S 15:41:17 26° S
SJ-7 4.1 15:42:23 57° S 15:43:06 84° WSW 15:46:53 10° NNW
Cosmos 1354 Rocket 4.1 15:38:20 10° S 15:43:27 53° ESE 15:43:36 53° ESE
Meteor 1-5 Rocket 4.0 15:38:50 10° NNW 15:44:10 90° WSW 15:49:35 10° SSE
SKYMED 2 3.4 15:45:54 73° ENE 15:46:11 77° ESE 15:50:32 10° S
Spot 4 Rocket 4.1 15:41:45 10° SSE 15:46:52 78° WSW 15:52:01 10° NNW
CZ-4C R/B 3.5 15:44:02 10° NW 15:50:37 57° SW 15:58:49 10° SSE
COSMO-SKYMED 1 3.9 15:52:52 26° S 15:52:52 26° S 15:54:45 10° S
SL-19 R/B 4.2 15:47:34 10° SSE 15:52:56 81° WSW 15:58:38 10° NNW
Cosmos 1726 Rocket 3.7 15:49:15 10° S 15:53:23 66° SE 15:53:23 66° SE
PSLV R/B 3.5 15:52:38 32° S 15:54:23 74° WSW 15:58:27 10° NNW
Lacrosse 5 rocket 1.7 15:51:52 10° WSW 15:54:52 54° W 15:54:52 54° W
Cosmos 44 Rocket 4.3 15:52:12 10° NW 15:56:25 35° N 15:56:25 35° N
Cosmos 2084 4.2 15:54:09 10° W 15:58:06 40° NNW 15:58:09 40° NNW
Cosmos 1777 Rocket 4.0 15:53:32 10° SSW 15:58:48 83° WNW 16:00:11 51° NNE
Cosmos 1867 4.4 15:53:44 10° NW 15:58:58 49° SW 16:03:16 15° SSE
Cosmos 1980 Rocket 3.9 15:54:15 10° SSE 15:55:56 18° SSE 15:55:56 18° SSE
Resurs 01 Rocket 3.3 16:05:25 22° N 16:05:25 22° N 16:07:02 10° N
CZ-2D R/B 4.5 15:59:57 10° S 16:04:00 46° W 16:08:02 10° NNW
Cosmos 1844 Rocket 3.6 15:59:13 10° NNW 16:03:16 33° NNE 16:03:16 33° NNE
YAOGAN 1 3.3 16:04:12 10° S 16:08:21 51° W 16:12:32 10° NNW
Cosmos 2263 Rocket 2.2 16:04:39 10° NW 16:10:21 79° WSW 16:12:02 47° SSE
SL-16 R/B 4.2 16:05:10 10° N 16:10:26 30° NW 16:15:40 10° WSW
CENTAUR R/B 3.2 16:04:58 10° W 16:11:11 54° NNW 16:13:45 38° NNE
Cosmos 1953 Rocket 4.1 16:10:27 10° NNW 16:14:49 59° W 16:16:13 39° SSW
Nadezhda 2 Rocket 4.3 16:09:54 10° N 16:16:06 78° ENE 16:17:08 62° SE
Cosmos 2360 4.5 16:11:47 10° SW 16:17:29 66° NW 16:18:51 50° N
USA 81 4.1 16:12:30 10° N 16:17:47 75° W 16:23:02 10° S
USA 215 3.2 16:17:05 57° SE 16:18:36 81° SSW 16:25:12 10° WNW
Cosmos 2227 Rocket 3.1 16:13:44 10° NW 16:19:05 46° WSW 16:24:27 10° S
USA 281 3.5 16:24:52 48° NNE 16:24:52 48° NNE 16:30:24 10° NNW
Cosmos 2369 Rocket 4.1 16:23:56 10° WNW 16:27:59 19° NNW 16:29:28 18° N
GEOS 3 Rocket 4.3 16:29:20 44° N 16:29:54 46° NNW 16:35:01 10° W
Cosmos 1943 Rocket 4.2 16:33:49 10° NNW 16:36:13 16° N 16:36:13 16° N
Cosmos 2278 Rocket 4.2 16:33:41 10° NNW 16:36:26 17° N 16:36:26 17° N
Cosmos 1697 Rocket 3.0 16:35:33 10° SW 16:40:11 61° SW 16:40:11 61° SW
NOSS 3-2 (C) 4.0 16:58:48 10° WSW 17:02:36 48° W 17:02:36 48° W
NOSS 3-2 (A) 4.1 17:00:59 10° W 17:05:38 47° NW 17:05:38 47° NW
Lacrosse 4 Rocket 4.5 17:14:03 10° NW 17:14:13 11° NW 17:14:13 11° NW
CENTAUR R/B 4.0 17:56:28 10° WNW 18:00:51 36° NW 18:00:51 36° NW
